JCSAT-5A 1 29045U 06010A 21060.99009080 -.00000336 00000-0 00000+0 0 9993 2 29045 0.0328 248.0634 0002130 124.1527 276.2445 1.00271349 54556 BLOCK DM-SL R/B 1 29046U 06010B 21060.70198347 -.00000140 00000-0 00000+0 0 9991 2 29046 0.9312 20.4382 6793918 310.5792 4.2383 2.19420270119342